Tulsa Jones, OK

9:23 AM CDT on March 28, 2017 (GMT -0500)
Jones Jr.

Weather History for KRVS - February, 2014

Change the Weather History Date:

Tuesday, February 18, 2014

  Actual Average (KTUL) Record (KTUL)
Temperature  
Mean Temperature 52 °F -  
Max Temperature 75 °F 53 °F 78 °F (1930)
Min Temperature 28 °F 32 °F 2 °F (1936)
Degree Days  
Heating Degree Days 14    
Growing Degree Days 2 (Base 50)    
Moisture  
Dew Point 28 °F    
Average Humidity 48    
Maximum Humidity 81    
Minimum Humidity 19    
Precipitation  
Precipitation 0.00 in - - ()
Sea Level Pressure  
Sea Level Pressure 29.94 in    
Wind  
Wind Speed 4 mph (SSW)    
Max Wind Speed 16 mph    
Max Gust Speed 28 mph    
Visibility 10 miles    
Events      
Averages and records for this station are not official NWS values.
T = Trace of Precipitation, MM = Missing Value Source: NWS Daily Summary

Daily Weather History Graph

Daily Weather History Graph

Search for Another Location

Airport or City:

Trip Planner

Search our weather history database for the weather conditions in past years. The results will help you decide how hot, cold, wet, or windy it might be!

Date:

Astronomy

Feb. 18, 2014 Rise Set
Actual Time 7:07 AM CST 6:08 PM CST
Civil Twilight 6:41 AM CST 6:34 PM CST
Nautical Twilight 6:11 AM CST 7:04 PM CST
Astronomical Twilight 5:42 AM CST 7:34 PM CST
Moon 9:54 PM CST (2/18) 8:48 AM CST (2/18)
Length of Visible Light 11h 52m
Length of Day
11h 00m
Waning Gibbous, 87% of the Moon is Illuminated
Feb 18
Waning Gibbous
Feb 22
Last Quarter
Mar 1
New
Mar 8
First Quarter
Mar 16
Full

Hourly Weather History & Observations

Time (CST) Temp. Dew Point Humidity Pressure Visibility Wind Dir Wind Speed Gust Speed Precip Events Conditions
12:53 AM 36.0 °F 25.0 °F 64% 30.11 in 10.0 mi Calm Calm - N/A   Clear
1:53 AM 32.0 °F 24.1 °F 73% 30.09 in 10.0 mi Calm Calm - N/A   Clear
2:53 AM 30.0 °F 24.1 °F 79% 30.07 in 10.0 mi Calm Calm - N/A   Clear
3:53 AM 30.0 °F 23.0 °F 75% 30.05 in 10.0 mi Calm Calm - N/A   Clear
4:53 AM 30.0 °F 23.0 °F 75% 30.03 in 10.0 mi Calm Calm - N/A   Clear
5:53 AM 30.0 °F 23.0 °F 75% 30.03 in 10.0 mi Calm Calm - N/A   Clear
6:53 AM 28.0 °F 23.0 °F 81% 30.02 in 10.0 mi Calm Calm - N/A   Clear
7:53 AM 37.0 °F 27.0 °F 67% 30.01 in 10.0 mi Calm Calm - N/A   Clear
8:53 AM 48.0 °F 28.9 °F 48% 30.01 in 10.0 mi South 9.2 mph - N/A   Clear
9:53 AM 54.0 °F 28.0 °F 37% 29.98 in 10.0 mi South 12.7 mph 21.9 mph N/A   Clear
10:53 AM 62.1 °F 28.0 °F 28% 29.97 in 10.0 mi South 10.4 mph - N/A   Clear
11:53 AM 66.9 °F 28.0 °F 23% 29.93 in 10.0 mi South 16.1 mph 25.3 mph N/A   Clear
12:53 PM 69.1 °F 27.0 °F 21% 29.87 in 10.0 mi SSW 15.0 mph 24.2 mph N/A   Clear
1:53 PM 72.0 °F 27.0 °F 19% 29.81 in 10.0 mi South 16.1 mph 27.6 mph N/A   Clear
2:53 PM 73.9 °F 30.0 °F 20% 29.79 in 10.0 mi SW 12.7 mph 24.2 mph N/A   Clear
3:53 PM 75.0 °F 30.9 °F 20% 29.79 in 10.0 mi South 13.8 mph 23.0 mph N/A   Clear
4:53 PM 75.9 °F 32.0 °F 20% 29.79 in 10.0 mi SSW 12.7 mph 21.9 mph N/A   Clear
5:53 PM 72.0 °F 33.1 °F 24% 29.80 in 10.0 mi SW 5.8 mph - N/A   Clear
6:53 PM 62.1 °F 34.0 °F 35% 29.84 in 10.0 mi West 3.5 mph - N/A   Clear
7:53 PM 57.0 °F 34.0 °F 42% 29.87 in 10.0 mi Calm Calm - N/A   Clear
8:53 PM 46.0 °F 34.0 °F 63% 29.90 in 10.0 mi Calm Calm - N/A   Clear
9:53 PM 46.0 °F 33.1 °F 61% 29.92 in 10.0 mi Calm Calm - N/A   Clear
10:53 PM 44.1 °F 32.0 °F 63% 29.94 in 10.0 mi Calm Calm - N/A   Clear
11:53 PM 60.1 °F 28.9 °F 31% 29.98 in 10.0 mi North 11.5 mph 18.4 mph N/A   Clear